This demonstration page uses our WeatherBlox Daily Observations layout. Learn more.

Left ArrowRight Arrow

47.50024, -111.30081

Hourly Observations for May 14, 2017

Temp ( °F °C ) Dew Point ( °F °C ) Humidity (%) Winds ( mph kmh ) Pressure ( in mb ) Visibility ( mi km ) Precip ( " mm )
12:53 am 00:53 Clear 39 3.9 27 -2.8 62 62 SSW 15 24 29.87 1012 10 16 0.00 0.00
1:53 am 01:53 Clear 40 4.4 27 -2.8 60 60 SSW 16 26 29.86 1011 10 16 0.00 0.00
2:53 am 02:53 Clear 40 4.4 27 -2.8 60 60 SW 13 20 29.86 1011 10 16 0.00 0.00
3:53 am 03:53 Clear 38 3.3 27 -2.8 65 65 SW 15 24 29.88 1012 10 16 0.00 0.00
4:53 am 04:53 Clear 37 2.8 27 -2.8 67 67 SSW 14 22 29.91 1013 10 16 0.00 0.00
5:53 am 05:53 Sunny 37 2.8 28 -2.2 70 70 SW 14 22 29.92 1013 10 16 0.00 0.00
6:53 am 06:53 Sunny 39 3.9 28 -2.2 65 65 SW 15 24 29.93 1014 10 16 0.00 0.00
7:53 am 07:53 Sunny 43 6.1 28 -2.2 56 56 SW 23 37 29.93 1013 10 16 0.00 0.00
8:53 am 08:53 Sunny 44 6.7 26 -3.3 49 49 SW 18 30 29.93 1014 10 16 0.00 0.00
9:53 am 09:53 Mostly Cloudy 47 8.3 26 -3.3 44 44 SW 23 37 29.94 1014 10 16 0.00 0.00
10:53 am 10:53 Partly Cloudy 50 10 25 -3.9 38 38 SW 23 37 29.93 1014 10 16 0.00 0.00
11:53 am 11:53 Sunny 52 11.1 25 -3.9 35 35 WSW 23 37 29.92 1013 10 16 0.00 0.00
12:53 pm 12:53 Mostly Sunny 54 12.2 23 -5 30 30 SW 20 31 29.91 1013 10 16 0.00 0.00
1:53 pm 13:53 Mostly Sunny 55 12.8 24 -4.4 30 30 WSW 17 28 29.89 1012 10 16 0.00 0.00
2:53 pm 14:53 Mostly Sunny 55 12.8 23 -5 29 29 WSW 20 31 29.88 1012 10 16 0.00 0.00
3:53 pm 15:53 Sunny 56 13.3 16 -8.9 21 21 WSW 28 44 29.88 1012 10 16 0.00 0.00
4:53 pm 16:53 Sunny 55 12.8 19 -7.2 24 24 SW 26 43 29.89 1012 10 16 0.00 0.00
5:53 pm 17:53 Sunny 56 13.3 17 -8.3 22 22 WSW 22 35 29.88 1012 10 16 0.00 0.00
6:53 pm 18:53 Sunny 54 12.2 21 -6.1 28 28 WSW 20 31 29.89 1012 10 16 0.00 0.00
7:53 pm 19:53 Sunny 51 10.6 20 -6.7 29 29 W 12 19 29.90 1013 10 16 0.00 0.00
8:53 pm 20:53 Sunny 43 6.1 25 -3.9 49 49 WSW 12 19 29.91 1013 10 16 0.00 0.00
9:53 pm 21:53 Clear 41 5 26 -3.3 55 55 W 7 11 29.93 1014 10 16 0.00 0.00
10:53 pm 22:53 Clear 39 3.9 26 -3.3 60 60 W 7 11 29.93 1014 10 16 0.00 0.00
11:53 pm 23:53 Mostly Clear 37 2.8 26 -3.3 65 65 NW 6 9 29.94 1014 10 16 0.00 0.00

Powered by AerisWeather